Regional Weather Roundup
Issued by NWS

Home | Current Version | Previous Version | Text Only | Print | Product List | Glossary On
Versions: 1 2 3 4 5 6 7 8 9 10 11 12 13 14 15 16 17 18 19 20 21 22 23 24 25 26 27 28 29 30 31 32 33 34 35 36 37 38 39 40 41 42 43 44 45 46 47 48 49 50
000
ASUS44 KOUN 020510
RWROK

WEATHER ROUNDUP FOR OKLAHOMA
NATIONAL WEATHER SERVICE NORMAN OK
1200 AM CDT SAT AUG 02 2014

NOTE: "FAIR" INDICATES FEW OR NO CLOUDS BELOW 12,000 FEET WITH NO
      SIGNIFICANT WEATHER AND/OR OBSTRUCTIONS TO VISIBILITY.

OKZ001>007-009>012-014-015-017-020600-
NORTHWEST OKLAHOMA AND THE PANHANDLE

CITY           SKY/WX    TMP DP  RH WIND       PRES   REMARKS
GAGE           PTCLDY    68  63  84 CALM      30.12R
ENID/WOODRING  CLEAR     68  66  94 S6        30.06R
$$

OKZ016-021>023-033>039-044-045-020600-
SOUTHWEST OKLAHOMA

CITY           SKY/WX    TMP DP  RH WIND       PRES   REMARKS
LAWTON/REGL    CLEAR     71  65  81 SE5       30.09R
LAWTON/FT SILL CLEAR     70  65  85 S6        30.09R
FREDERICK      CLEAR     71  67  87 SE7       30.07R
CLINTON        CLEAR     71  65  81 S5        30.13R
HOBART         CLEAR     71  65  81 S9        30.11R
ALTUS AFB      CLEAR     70  67  91 SE6       30.10R
$$

OKZ018>020-024>031-020600-
CENTRAL OKLAHOMA

CITY           SKY/WX    TMP DP  RH WIND       PRES   REMARKS
OKLAHOMA CITY  PTCLDY    69  65  86 S5        30.09R
OKC/WILEY POST CLEAR     72  65  78 S7        30.08S
OKC/TINKER AFB CLEAR     69  66  90 S6        30.09R
STILLWATER     CLEAR     70  64  81 S3        30.07R
GUTHRIE        CLEAR     71  66  84 S7        30.07S
$$

OKZ008-013-054>072-020600-
NORTHEAST OKLAHOMA

CITY           SKY/WX    TMP DP  RH WIND       PRES   REMARKS
TULSA          CLEAR     74  65  73 CALM      30.05R
TULSA/JONES    CLEAR     67  66  97 CALM      30.07R
PONCA CITY     CLEAR     72  65  78 SE7       30.06S
BARTLESVILLE   CLEAR     65  64  97 CALM      30.08R FOG
MUSKOGEE       CLEAR     68  66  93 S3        30.08R
$$

OKZ032-040>043-046>053-073>077-020600-
SOUTH CENTRAL/SOUTHEAST OKLAHOMA

CITY           SKY/WX    TMP DP  RH WIND       PRES   REMARKS
ARDMORE/DWNTWN CLEAR     68  64  88 CALM      30.08S
MCALESTER      PTCLDY    67  65  93 CALM      30.08R
$$




USA.gov is the U.S. government's official web portal to all federal, state and local government web resources and services.